Location: Unspecified
(0.0000°N, 0.0000°E)
Time: 15:42:24
(UTC+00:00)

Courier 1B Rocket - Visible Passes

Search period start: 25 September 2016 00:00
Search period end: 05 October 2016 00:00
Orbit: 920 x 1202 km, 28.2° (Epoch: 24 September)

Date Brightness Start Highest point End Pass type
(mag) Time Alt. Az. Time Alt. Az. Time Alt. Az.
28 Sep 7.2 19:39:02 10° S 19:41:49 13° SSE 19:41:49 13° SSE visible
29 Sep 7.2 20:29:17 10° SSW 20:31:06 16° SSW 20:31:06 16° SSW visible
30 Sep 6.7 19:28:45 10° SSW 19:33:46 19° SSE 19:34:02 19° SSE visible
01 Oct 7.1 18:28:31 10° S 18:32:11 14° SSE 18:35:46 10° SE visible
01 Oct 6.7 20:19:53 10° SW 20:23:24 27° SSW 20:23:24 27° SSW visible
02 Oct 6.2 19:19:04 10° SSW 19:25:24 29° SSE 19:26:25 28° SE visible
02 Oct 7.7 21:12:00 10° WSW 21:12:48 13° WSW 21:12:48 13° WSW visible
03 Oct 6.8 18:18:27 10° SSW 18:23:56 21° SSE 18:29:11 10° ESE visible
03 Oct 6.0 20:10:45 10° SW 20:15:51 44° SSW 20:15:51 44° SSW visible
04 Oct 5.8 19:09:42 10° SW 19:16:52 43° SSE 19:18:55 36° ESE visible
04 Oct 7.4 21:03:26 10° WSW 21:05:19 19° WSW 21:05:19 19° WSW visible
